Dewpoint
36 32 30 31 31 29 28 27 26 24 25 24 23 23 23 23 24 24 25 25 25 25 23 22 26 31 36 43 52 56 59 60 63 63 62 61 61 62 62 62 62 62 62 62
35 33 32 31 30 29 28 27 26 25 26 25 24 23 25 25 25 25 25 25 25 25 24 23 25 33 40 46 52 55 56 58 61 63 63 62 61 61 61 62 61 62 62 61
28 32 32 31 30 29 28 27 26 24 25 26 24 23 24 25 26 26 25 25 25 25 25 24 25 33 40 47 52 54 54 54 57 59 60 58 59 60 59 61 61 61 61 61
28 28 26 25 26 27 24 26 25 25 24 22 25 22 24 25 25 25 24 24 26 29 30 28 28 33 39 42 50 52 52 52 52 54 54 55 54 56 57 58 59 59 60 61
27 26 25 25 26 27 26 28 26 25 25 25 25 25 25 25 24 24 24 28 35 36 33 32 38 35 41 46 49 51 52 52 53 53 53 53 53 54 56 57 56 57 59 61
21 25 24 24 23 25 27 26 25 26 25 23 24 25 23 24 24 23 31 35 36 36 35 40 48 50 50 51 52 53 54 54 54 53 54 54 54 54 55 57 57 58 59 60
19 17 19 18 18 20 18 20 24 24 24 21 25 25 25 25 25 24 31 36 38 37 39 46 50 51 52 53 54 55 55 54 54 53 54 55 54 54 54 55 57 57 57 57
16 12 14 12 11 11 16 18 22 23 23 23 27 26 26 27 28 28 30 38 40 38 44 49 52 53 54 55 55 55 55 55 56 56 57 57 56 57 56 56 56 56 56 56
14 11 15 12 10 10 13 16 15 23 31 29 30 31 30 34 34 29 33 40 41 41 47 50 53 54 54 55 55 55 56 56 56 55 55 56 56 56 56 56 57 57 57 58
14 10 13 12 6 9 8 9 18 27 24 21 24 24 29 33 35 37 40 39 43 46 49 51 53 54 53 53 54 54 54 54 55 55 54 54 55 56 57 56 56 56 55 56
13 13 8 10 8 8 7 6 7 24 27 24 20 25 35 35 35 35 36 45 47 48 49 50 53 53 53 54 55 55 55 55 56 56 55 55 55 54 54 54 54 54 55 54
14 13 11 11 11 9 7 8 20 19 20 24 26 26 38 36 36 36 35 37 47 48 48 52 53 53 53 54 54 55 55 56 55 55 54 54 54 53 53 52 52 53 53 54
15 12 11 6 7 13 17 16 17 19 25 24 21 24 27 30 30 36 36 36 36 47 48 51 53 52 52 53 53 53 54 54 53 53 53 52 52 52 52 52 52 52 52 53
21 17 15 12 12 16 15 15 16 15 13 18 18 18 20 24 30 34 38 37 38 43 49 50 51 51 52 53 53 53 54 53 53 53 52 52 51 52 52 51 52 52 53 53
19 17 17 13 13 14 15 15 14 12 10 10 11 15 18 22 30 35 39 39 37 42 48 49 48 49 50 51 50 51 52 52 53 52 51 51 52 51 51 51 52 53 53 53
12 10 12 11 12 13 13 13 12 11 10 7 6 8 21 24 35 36 37 38 38 41 42 49 50 49 49 49 49 49 51 51 51 50 50 50 50 50 50 51 52 52 52 52
13 13 12 10 12 15 12 9 9 9 7 7 5 6 9 23 33 34 36 39 39 43 43 40 51 49 48 48 48 49 50 50 50 49 49 49 49 49 50 50 51 51 51 51
13 14 15 15 15 8 7 11 10 9 10 9 8 12 11 13 29 35 39 38 39 41 44 42 42 51 49 48 48 49 50 49 49 48 49 49 49 49 49 49 49 50 50 50
14 14 18 15 14 10 13 12 12 13 13 17 17 15 15 19 32 34 38 38 38 41 45 45 41 41 50 48 48 49 50 49 48 48 48 48 48 48 48 48 48 48 48 48
22 18 21 18 14 10 9 14 18 19 14 29 28 24 23 30 26 30 36 31 34 39 43 44 43 47 46 49 48 49 49 48 48 47 48 48 48 47 47 48 47 47 47 47
19 21 17 18 17 19 20 26 25 18 23 29 29 29 29 28 29 30 31 30 31 32 38 45 48 48 47 49 48 49 48 48 47 47 48 47 47 47 47 47 47 46 45 45
11 10 16 18 17 13 25 21 18 20 28 26 27 30 30 27 28 28 27 28 33 33 36 45 49 49 49 48 49 48 48 47 47 47 47 47 47 47 47 47 46 45 43 42
12 15 15 19 20 22 20 21 24 28 23 25 26 21 25 24 23 23 23 23 25 29 34 43 48 51 49 48 48 48 47 46 46 46 46 46 46 46 47 46 45 43 42 41
17 23 20 17 17 17 18 25 25 25 24 25 24 17 18 15 15 15 16 16 21 25 28 35 47 48 50 49 48 48 47 46 45 45 45 46 45 45 45 45 44 43 42 40
20 20 17 16 17 18 23 22 24 23 25 26 25 21 20 19 16 14 16 17 17 20 26 29 39 47 49 50 48 47 46 45 45 45 45 45 45 45 44 44 43 41 40 40
18 14 15 15 17 17 19 20 20 15 17 21 23 20 23 23 19 15 15 17 18 18 23 27 29 47 48 50 48 47 46 45 44 44 44 45 44 43 41 41 41 41 40 39
Wind_Speed
9 9 16 20 17 18 19 22 23 21 14 14 11 16 18 18 16 17 22 20 21 21 21 18 16 24 21 22 27 25 25 22 21 18 17 12 12 10 8 10 10 6 5 5
12 19 19 20 19 21 19 19 20 19 8 17 22 32 20 20 20 26 21 22 24 22 21 24 15 22 25 26 30 28 26 24 21 18 13 6 11 8 9 8 8 8 6 5
20 14 13 20 22 22 20 16 20 22 11 10 17 32 23 20 20 23 24 27 24 23 22 22 17 24 25 30 31 30 28 23 21 18 14 7 9 6 5 7 9 9 10 9
14 18 18 24 18 13 19 11 20 15 12 19 4 22 25 21 25 27 21 20 15 4 2 8 9 18 24 25 26 27 26 24 20 19 17 17 10 12 7 10 8 9 7 10
8 15 14 13 9 13 18 5 14 15 13 15 8 7 24 7 16 21 20 7 8 8 11 11 2 20 16 21 24 23 22 21 21 17 14 11 8 7 7 7 8 5 4 14
18 12 15 11 15 15 13 11 14 10 6 19 16 10 35 14 18 7 5 8 8 8 10 10 14 17 20 19 20 21 21 16 17 16 12 11 11 8 8 10 9 9 10 10
15 7 3 17 7 13 20 5 6 6 10 22 7 13 26 17 16 11 10 8 8 7 10 18 19 23 22 22 21 20 22 18 16 13 10 9 9 8 11 12 14 12 9 7
8 11 11 17 14 10 14 5 4 9 7 12 5 10 14 15 13 5 7 12 10 9 12 16 21 20 19 20 20 19 19 15 14 15 14 11 12 13 13 13 11 9 6 6
8 7 4 24 13 9 10 7 23 11 12 7 8 11 35 30 29 12 11 12 9 10 15 17 16 20 20 20 19 20 18 18 16 15 12 10 9 10 11 9 8 6 4 6
6 11 6 13 15 11 17 15 8 8 7 12 10 12 4 21 26 30 25 15 7 10 14 18 18 17 17 17 16 13 14 14 13 13 10 9 8 8 10 11 10 8 7 8
5 6 12 16 9 21 13 9 5 4 8 7 12 4 5 9 15 23 28 17 10 4 12 11 14 17 17 15 17 13 13 14 13 13 12 11 14 13 13 12 10 8 6 4
3 3 11 12 14 20 19 18 6 7 8 8 3 5 2 10 17 23 26 28 16 12 6 8 16 17 17 16 16 14 14 13 15 15 13 14 13 13 12 11 7 5 4 4
3 2 9 15 6 7 4 11 9 13 7 10 6 5 17 20 25 22 22 25 26 20 12 8 16 15 14 16 15 13 12 16 15 13 12 13 12 11 8 8 6 5 4 1
5 7 7 12 14 15 23 20 16 16 16 17 18 26 25 26 21 18 19 25 31 28 12 12 14 15 17 14 14 13 15 15 15 16 12 13 11 10 10 9 6 6 5 4
6 9 12 15 15 20 22 25 26 22 21 22 24 24 25 24 16 11 11 16 26 25 17 9 14 15 16 17 16 15 15 13 15 16 15 13 13 12 11 9 6 4 8 9
5 10 10 15 13 17 22 25 28 27 25 24 22 26 20 23 10 11 7 16 20 22 25 10 11 15 16 18 18 17 17 15 16 14 14 13 13 12 11 9 6 9 13 10
7 3 4 17 11 14 21 23 22 25 24 19 23 22 23 19 16 16 4 9 11 17 19 16 9 12 13 20 20 19 18 18 16 16 13 13 13 12 11 10 9 13 14 13
10 4 4 11 7 8 14 15 16 21 26 26 27 22 26 26 20 11 6 4 7 12 18 14 12 7 4 18 17 19 18 20 17 16 13 13 13 12 12 13 11 15 14 14
22 9 5 5 6 17 14 9 10 16 22 13 21 29 23 14 14 8 12 8 3 6 15 15 17 9 7 16 19 18 18 21 17 16 14 15 15 14 14 14 11 14 16 15
11 15 10 4 5 6 5 20 22 11 18 29 30 23 16 13 10 6 14 5 4 9 8 11 13 14 6 14 22 20 19 21 17 16 16 16 16 14 16 14 14 15 16 15
4 4 11 15 9 10 8 9 8 6 7 24 26 25 11 7 4 9 9 2 5 8 3 5 9 10 10 18 22 20 20 20 19 18 18 17 16 15 15 15 14 17 18 19
5 6 6 5 7 7 2 13 10 10 4 15 23 3 11 11 9 9 8 8 8 14 13 10 8 12 5 20 22 21 20 20 22 20 18 17 17 15 15 18 14 16 18 20
6 9 4 6 5 14 16 12 17 12 6 9 16 9 10 7 4 4 7 9 9 8 13 8 7 4 5 13 19 21 20 22 22 21 19 17 17 15 16 18 16 16 15 18
5 2 2 6 6 13 17 11 14 15 13 8 13 3 7 5 5 6 8 9 9 9 12 12 5 3 4 7 15 21 23 22 23 21 20 17 19 16 15 13 14 14 14 14
8 7 4 14 15 14 7 10 12 17 15 15 17 9 2 3 5 5 4 5 7 8 11 12 8 1 2 4 16 21 22 23 22 21 20 18 17 18 14 10 13 13 11 15
10 17 12 13 14 15 11 11 9 13 15 14 15 13 7 7 4 1 6 6 6 9 9 13 11 2 4 6 19 18 20 22 24 22 18 18 18 16 15 15 14 10 18 18
Wind_Direction
211 209 219 236 237 240 256 268 275 283 299 308 281 273 270 270 271 273 268 259 254 258 255 263 246 203 185 167 163 160 158 163 146 144 148 155 164 163 143 149 148 161 169 187
247 241 236 238 246 251 255 270 290 297 317 319 312 299 286 283 280 275 268 259 255 254 262 259 243 203 174 166 160 161 160 162 158 156 151 150 169 196 185 181 180 176 195 155
243 240 253 232 247 254 260 268 279 279 288 286 302 286 284 276 271 273 267 258 250 240 248 254 250 200 168 161 162 164 161 159 160 151 147 132 143 132 168 181 178 192 192 187
260 260 254 266 268 238 271 253 271 285 306 289 184 290 287 284 275 282 276 274 247 159 259 252 231 189 178 164 158 157 155 155 152 143 146 148 157 161 182 170 183 197 194 192
255 313 317 315 294 279 270 305 283 254 273 293 258 261 285 300 284 273 286 241 103 81 59 34 62 182 165 146 145 144 142 146 144 140 146 155 165 183 182 184 182 190 202 183
271 292 286 300 310 301 296 318 300 284 249 265 258 211 275 271 255 242 107 128 103 81 74 84 96 100 114 117 123 127 125 131 134 131 135 160 174 180 165 169 161 131 110 123
327 314 52 21 4 1 7 4 296 277 218 240 206 218 235 272 279 229 174 158 128 100 94 124 118 114 107 108 113 114 118 122 125 132 127 141 152 149 152 150 143 142 130 131
343 315 24 36 37 329 311 282 268 275 254 274 295 237 246 238 228 202 155 157 145 126 124 127 128 119 113 112 114 116 117 117 114 111 106 107 114 114 112 121 132 136 147 165
347 280 5 45 12 338 326 22 304 268 254 254 249 296 309 3 354 267 149 152 160 146 144 137 123 122 116 115 114 107 111 114 114 110 108 103 116 121 125 123 127 143 156 164
58 295 29 1 344 32 353 316 332 327 263 242 233 243 227 0 357 349 6 345 145 144 137 136 130 126 112 118 117 109 116 117 116 111 121 150 131 126 113 111 108 108 97 101
48 198 279 355 357 330 329 303 313 293 258 278 266 215 28 352 10 1 2 353 342 109 131 141 135 123 119 119 115 131 134 135 130 138 137 119 100 94 93 92 78 75 94 91
50 275 287 317 309 279 274 286 281 245 290 290 281 254 33 344 353 360 357 354 340 305 317 101 130 128 133 125 120 135 143 142 131 128 117 103 99 93 87 86 80 73 80 78
26 319 314 324 343 15 7 343 328 284 256 265 287 231 355 360 351 350 336 346 343 305 258 149 127 134 143 136 145 159 138 129 127 122 116 104 100 106 108 95 92 98 97 56
246 222 216 253 264 285 297 300 306 292 280 277 274 292 305 324 328 329 335 348 336 319 273 163 145 157 147 147 158 153 142 140 134 131 135 129 124 123 114 105 106 104 123 125
192 240 254 264 275 287 295 297 294 282 271 271 286 270 280 288 291 300 318 344 328 322 286 190 168 171 155 153 144 138 141 139 134 132 129 123 121 112 108 103 102 114 89 74
284 282 291 295 301 298 296 284 279 278 278 280 277 277 255 265 219 260 316 321 331 314 330 216 185 166 168 164 159 152 147 133 129 125 120 120 112 110 107 105 106 93 81 74
263 253 332 282 301 312 292 273 260 263 265 271 277 280 289 259 216 226 263 311 340 323 312 4 246 205 153 170 159 157 145 136 129 127 128 128 117 116 110 104 101 95 87 86
232 206 231 278 303 263 249 292 277 264 268 268 271 277 270 264 230 181 185 313 296 323 311 333 344 276 194 151 160 148 141 134 133 132 138 127 123 117 112 106 102 96 89 88
214 193 231 227 210 272 296 282 359 301 283 278 288 271 269 247 140 212 202 225 128 339 283 301 308 310 232 153 153 151 144 132 136 142 145 132 128 123 118 112 107 100 99 93
169 196 196 189 247 273 272 323 316 297 288 352 339 293 204 146 184 233 194 223 197 170 227 272 294 313 291 162 152 149 145 135 141 141 133 130 128 127 122 117 112 103 99 98
164 191 217 233 247 266 273 310 340 2 308 324 333 316 144 174 161 127 156 48 16 333 351 284 327 315 289 159 153 150 145 142 138 129 124 125 126 127 124 117 119 115 111 106
267 280 223 226 213 277 350 316 338 287 253 317 330 14 48 47 53 60 51 29 50 341 348 344 8 356 108 150 150 150 146 138 132 128 125 127 130 132 128 120 122 120 117 110
264 210 247 219 215 269 313 317 314 270 273 288 327 320 126 114 24 30 40 21 41 4 344 347 39 50 70 148 149 145 143 136 132 129 130 132 131 136 134 128 134 124 123 121
281 301 231 284 272 293 300 317 335 307 273 297 307 283 59 67 35 44 40 24 9 10 358 347 35 45 59 138 156 145 143 139 135 135 135 137 137 140 140 130 135 134 132 131
244 313 274 281 293 298 288 317 324 327 339 337 334 271 253 317 327 348 12 19 355 349 359 349 357 348 145 122 143 146 144 141 138 138 141 143 145 144 141 119 137 144 143 147
219 244 241 257 280 281 284 289 293 315 312 316 315 308 249 243 265 314 315 324 344 343 342 333 354 259 162 120 145 146 147 146 142 143 150 153 153 137 129 126 114 121 143 141